• In Czech Republic
  • List of Countries
  • For 7 days
  • Water Temperature
  • Satellite Maps
  • Weather Map
  • Weather Widgets
  • user-avatar
    Login

    Hourly Weather Mazatecochco

    Today, 23 November, Thursday

    Time Temperature Precipitation Wind Pressure Humidity
    00:00 +5°C° 0 mm 3 mps 575 mmHg 70%
    01:00 +5°C° 0 mm 3 mps 575 mmHg 68%
    02:00 +4°C° 0 mm 3 mps 574 mmHg 67%
    03:00 +5°C° 0 mm 2 mps 574 mmHg 67%
    04:00 +5°C° 0 mm 2 mps 574 mmHg 66%
    05:00 +5°C° 0 mm 2 mps 574 mmHg 66%
    06:00 +6°C° 0 mm 2 mps 575 mmHg 58%
    07:00 +8°C° 0 mm 2 mps 576 mmHg 51%
    08:00 +10°C° 0 mm 2 mps 577 mmHg 44%
    09:00 +13°C° 0 mm 2 mps 578 mmHg 38%
    10:00 +15°C° 0 mm 2 mps 579 mmHg 32%
    11:00 +18°C° 0 mm 1 mps 579 mmHg 26%
    12:00 +17°C° 0 mm 2 mps 579 mmHg 25%
    13:00 +18°C° 0 mm 2 mps 578 mmHg 25%
    14:00 +18°C° 0 mm 2 mps 578 mmHg 25%
    15:00 +16°C° 0 mm 2 mps 577 mmHg 32%
    16:00 +14°C° 0 mm 2 mps 576 mmHg 40%
    17:00 +13°C° 0 mm 2 mps 576 mmHg 47%
    18:00 +12°C° 0 mm 2 mps 576 mmHg 54%
    19:00 +11°C° 0 mm 1 mps 576 mmHg 60%
    20:00 +10°C° 0 mm 1 mps 576 mmHg 66%
    21:00 +9°C° 0 mm 1 mps 576 mmHg 68%
    22:00 +9°C° 0 mm 1 mps 575 mmHg 70%
    23:00 +9°C° 0 mm 1 mps 575 mmHg 72%

    Tomorrow, 24 November, Friday

    Time Temperature Precipitation Wind Pressure Humidity
    00:00 +8°C° 0 mm 1 mps 575 mmHg 72%
    01:00 +8°C° 0 mm 1 mps 574 mmHg 72%
    02:00 +8°C° 0 mm 1 mps 574 mmHg 72%
    03:00 +7°C° 0 mm 1 mps 574 mmHg 72%
    04:00 +7°C° 0 mm 1 mps 574 mmHg 72%
    05:00 +7°C° 0 mm 1 mps 573 mmHg 73%
    06:00 +9°C° 0 mm 1 mps 575 mmHg 66%
    07:00 +11°C° 0 mm 1 mps 576 mmHg 59%
    08:00 +12°C° 0 mm 1 mps 577 mmHg 52%
    09:00 +14°C° 0 mm 1 mps 578 mmHg 46%
    10:00 +16°C° 0 mm 1 mps 578 mmHg 40%
    11:00 +17°C° 0 mm 2 mps 578 mmHg 34%
    12:00 +18°C° 0 mm 2 mps 578 mmHg 34%
    13:00 +18°C° 0 mm 3 mps 578 mmHg 34%
    14:00 +19°C° 0 mm 3 mps 577 mmHg 33%
    15:00 +17°C° 0 mm 3 mps 576 mmHg 41%
    16:00 +15°C° 0 mm 2 mps 576 mmHg 48%
    17:00 +14°C° 0 mm 2 mps 575 mmHg 56%
    18:00 +13°C° 0 mm 1 mps 575 mmHg 61%
    19:00 +12°C° 0 mm 1 mps 575 mmHg 66%
    20:00 +11°C° 0 mm 1 mps 576 mmHg 71%
    21:00 +11°C° 0 mm 1 mps 575 mmHg 72%
    22:00 +10°C° 0 mm 1 mps 575 mmHg 73%
    23:00 +10°C° 0 mm 1 mps 575 mmHg 74%

    Day after tomorrow, 25 November, Saturday

    Time Temperature Precipitation Wind Pressure Humidity
    00:00 +10°C° 0 mm 1 mps 575 mmHg 75%
    01:00 +9°C° 0 mm 1 mps 574 mmHg 76%
    02:00 +9°C° 0 mm 1 mps 574 mmHg 77%
    03:00 +9°C° 0 mm 1 mps 574 mmHg 78%
    04:00 +8°C° 0 mm 1 mps 574 mmHg 78%
    05:00 +8°C° 0 mm 1 mps 574 mmHg 78%
    06:00 +10°C° 0 mm 1 mps 575 mmHg 68%
    07:00 +12°C° 0 mm 1 mps 576 mmHg 58%
    08:00 +14°C° 0 mm 1 mps 578 mmHg 48%
    09:00 +16°C° 0 mm 1 mps 578 mmHg 41%
    10:00 +19°C° 0 mm 1 mps 579 mmHg 34%
    11:00 +20°C° 0 mm 2 mps 580 mmHg 26%
    12:00 +20°C° 0 mm 2 mps 579 mmHg 26%
    13:00 +21°C° 0 mm 2 mps 579 mmHg 26%
    14:00 +21°C° 0 mm 2 mps 578 mmHg 25%
    15:00 +19°C° 0 mm 2 mps 578 mmHg 34%
    16:00 +17°C° 0 mm 2 mps 577 mmHg 43%
    17:00 +15°C° 0 mm 2 mps 576 mmHg 52%
    18:00 +14°C° 0 mm 2 mps 577 mmHg 56%
    19:00 +13°C° 0 mm 1 mps 577 mmHg 61%
    20:00 +12°C° 0 mm 1 mps 577 mmHg 66%
    21:00 +12°C° 0 mm 1 mps 577 mmHg 67%
    22:00 +11°C° 0 mm 1 mps 577 mmHg 67%
    23:00 +11°C° 0 mm 1 mps 577 mmHg 67%

    26 November, Sunday

    Time Temperature Precipitation Wind Pressure Humidity
    00:00 +9°C° 0 mm 2 mps 576 mmHg 65%
    01:00 +9°C° 0 mm 2 mps 576 mmHg 63%
    02:00 +8°C° 0 mm 2 mps 575 mmHg 61%
    03:00 +8°C° 0 mm 2 mps 576 mmHg 57%
    04:00 +8°C° 0 mm 2 mps 576 mmHg 54%
    05:00 +7°C° 0 mm 3 mps 576 mmHg 50%
    06:00 +9°C° 0 mm 3 mps 577 mmHg 44%
    07:00 +11°C° 0 mm 3 mps 578 mmHg 38%
    08:00 +13°C° 0 mm 3 mps 579 mmHg 32%
    09:00 +15°C° 0 mm 4 mps 580 mmHg 28%
    10:00 +17°C° 0 mm 4 mps 580 mmHg 25%
    11:00 +19°C° 0 mm 4 mps 581 mmHg 22%
    12:00 +19°C° 0 mm 4 mps 580 mmHg 23%
    13:00 +20°C° 0 mm 4 mps 580 mmHg 23%
    14:00 +20°C° 0 mm 4 mps 580 mmHg 24%
    15:00 +18°C° 0 mm 3 mps 579 mmHg 31%
    16:00 +16°C° 0 mm 3 mps 578 mmHg 38%
    17:00 +13°C° 0 mm 3 mps 577 mmHg 45%
    18:00 +11°C° 0 mm 3 mps 577 mmHg 52%
    19:00 +10°C° 0 mm 3 mps 577 mmHg 60%
    20:00 +9°C° 0 mm 3 mps 577 mmHg 67%
    21:00 +8°C° 0 mm 3 mps 577 mmHg 69%
    22:00 +8°C° 0 mm 3 mps 576 mmHg 70%
    23:00 +7°C° 0 mm 3 mps 576 mmHg 72%

    27 November, Monday

    Time Temperature Precipitation Wind Pressure Humidity
    00:00 +7°C° 0 mm 2 mps 576 mmHg 71%
    01:00 +7°C° 0 mm 2 mps 575 mmHg 71%
    02:00 +6°C° 0 mm 2 mps 575 mmHg 70%
    03:00 +6°C° 0 mm 2 mps 575 mmHg 69%
    04:00 +6°C° 0 mm 2 mps 575 mmHg 68%
    05:00 +6°C° 0 mm 2 mps 575 mmHg 68%
    06:00 +8°C° 0 mm 2 mps 576 mmHg 61%
    07:00 +10°C° 0 mm 2 mps 577 mmHg 54%
    08:00 +13°C° 0 mm 2 mps 578 mmHg 48%
    09:00 +15°C° 0 mm 2 mps 578 mmHg 41%
    10:00 +17°C° 0 mm 2 mps 579 mmHg 34%
    11:00 +19°C° 0 mm 2 mps 579 mmHg 27%
    12:00 +20°C° 0 mm 2 mps 579 mmHg 26%
    13:00 +20°C° 0 mm 2 mps 578 mmHg 26%
    14:00 +21°C° 0 mm 2 mps 578 mmHg 25%
    15:00 +19°C° 0 mm 2 mps 577 mmHg 32%
    16:00 +17°C° 0 mm 2 mps 576 mmHg 39%
    17:00 +15°C° 0 mm 2 mps 576 mmHg 47%
    18:00 +14°C° 0 mm 2 mps 576 mmHg 52%
    19:00 +13°C° 0 mm 1 mps 576 mmHg 57%
    20:00 +12°C° 0 mm 1 mps 576 mmHg 63%
    21:00 +11°C° 0 mm 1 mps 575 mmHg 65%
    22:00 +11°C° 0 mm 1 mps 575 mmHg 66%
    23:00 +10°C° 0 mm 1 mps 575 mmHg 68%

    28 November, Tuesday

    Time Temperature Precipitation Wind Pressure Humidity
    00:00 +10°C° 0 mm 1 mps 574 mmHg 68%
    01:00 +9°C° 0 mm 1 mps 574 mmHg 68%
    02:00 +9°C° 0 mm 1 mps 573 mmHg 68%
    03:00 +9°C° 0 mm 1 mps 573 mmHg 67%
    04:00 +9°C° 0 mm 1 mps 573 mmHg 66%
    05:00 +8°C° 0 mm 1 mps 573 mmHg 65%
    06:00 +10°C° 0 mm 1 mps 575 mmHg 57%
    07:00 +13°C° 0 mm 1 mps 576 mmHg 48%
    08:00 +15°C° 0 mm 1 mps 577 mmHg 39%
    09:00 +18°C° 0 mm 1 mps 578 mmHg 33%
    10:00 +19°C° 0 mm 1 mps 578 mmHg 27%
    11:00 +20°C° 0 mm 2 mps 579 mmHg 22%
    12:00 +21°C° 0 mm 2 mps 578 mmHg 22%
    13:00 +21°C° 0 mm 2 mps 578 mmHg 23%
    14:00 +21°C° 0 mm 2 mps 578 mmHg 23%
    15:00 +19°C° 0 mm 2 mps 577 mmHg 32%
    16:00 +17°C° 0 mm 2 mps 576 mmHg 40%
    17:00 +15°C° 0 mm 2 mps 576 mmHg 49%
    18:00 +14°C° 0 mm 1 mps 576 mmHg 54%
    19:00 +13°C° 0 mm 1 mps 576 mmHg 59%
    20:00 +13°C° 0 mm 1 mps 576 mmHg 64%
    21:00 +12°C° 0 mm 1 mps 576 mmHg 65%
    22:00 +12°C° 0 mm 1 mps 576 mmHg 67%
    23:00 +10°C° 0 mm 2 mps 576 mmHg 69%
    Show more